sat.trackr.live / text

‹ back to catalog

STARLINK-32765

NORAD 62747 · 2025-014N

PAYLOAD ACTIVE UNKNOWN

§ Identity

Operator
Country
US
Launch date
2025-01-21
Launch site
AFETR
Launch vehicle
Mass (kg)
RCS (m²)

Purposes: comms

External: N2YO · Heavens-Above · Gunter

§ Orbital elements

Epoch: 2026-05-25T02:35:21.096384Z

Period
94.27 min
Inclination
42.9995°
Eccentricity
0.0001196
Mean motion
15.27603406 rev/d
Perigee alt
482.2 km
Apogee alt
483.8 km
Semi-major
6,861.1 km
B*
5.3201e-4
RAAN
82.8931°
Arg perigee
256.7386°
Mean anomaly
103.3332°
Rev number
7,494

§ Raw data

STARLINK-327651 62747U 25014N   26145.10788306  .00014417  00000+0  53201-3 0  99992 62747  42.9995  82.8931 0001196 256.7386 103.3332 15.27603406 74944

JSON: /api/v1/satellites/62747 · /tle

For live sub-satellite position, see the globe view (requires WebGL).

§ Visibility from observer

Set your observer location to see the next 7 days of passes ≥ 10°. The values pass through the URL so the page stays shareable.

No JS? Fill the form by hand. The geolocation button needs JavaScript.